{"data":{"norad_id":68512,"epoch":"2026-09-19T09:35:52.716480Z","epoch_age_seconds":142782,"freshness":"FRESH","line1":"1 68512U 26068E   26262.39991570  .00018703  00000+0  56374-3 0  9991","line2":"2 68512  53.1583 298.6819 0001022  87.9711 272.1409 15.34375303 26759","mean_motion":15.34375303,"eccentricity":0.0001022,"inclination_deg":53.1583,"raan_deg":298.6819,"arg_perigee_deg":87.9711,"mean_anomaly_deg":272.1409,"bstar":0.00056374,"rev_number":2675,"period_min":93.849268636201,"perigee_km":462.07750450574,"apogee_km":463.47578725496,"semimajor_km":6840.9136458803,"source":"CELESTRAK","updated_at":"2026-09-20T09:00:43.901412Z"}}